Regional Weather Roundup
Issued by NWS

Home | Current Version | Previous Version | Graphics & Text | Print | Product List | Glossary On
Versions: 1 2 3 4 5 6 7 8 9 10 11 12 13 14 15 16 17 18 19 20 21 22 23 24 25 26 27 28 29 30 31 32 33 34 35 36 37 38 39 40 41 42 43 44 45 46 47 48 49 50
000
ASUS45 KABQ 202210
RWRNM
NEW MEXICO REGIONAL WEATHER ROUNDUP
NATIONAL WEATHER SERVICE ALBUQUERQUE NM
400 PM MDT SUN AUG 20 2017

NOTE: "FAIR" MEANS FEW OR NO CLOUDS BELOW 12,000 FEET AGL WITH NO
       SIGNIFICANT WEATHER OR OBSTRUCTIONS TO VISION.

      THIS PRODUCT IS RELEASED AS TWO VERSIONS.  ONE VERSION NEAR
      THE TOP OF THE HOUR CONTAINING PRELIMINARY DATA FROM ALBUQUERQUE
      AND OTHER STATIONS.  A FINAL VERSION WITH ADDITIONAL DATA IS
      ISSUED ABOUT 10 MINUTES AFTER THE HOUR.

NMZ501-503-504-510>518-202300-
NORTHWEST PLATEAU/NORTHCENTRAL MOUNTAINS

CITY           SKY/WX    TMP DP  RH WIND       PRES   REMARKS
FARMINGTON     FAIR      89  40  17 VRB6      30.05F
LOS ALAMOS     PTSUNNY   70  46  42 SW8       30.26F
SANTA FE       FAIR      74  52  46 SW14      30.20F
TAOS           RAIN      58  53  84 NW8       30.34F
ANGEL FIRE     PTSUNNY   60  44  55 CALM      30.38R

$$
NMZ402-403-502-505>509-202300-
WESTCENTRAL MOUNTAINS/SOUTHWEST MOUNTAINS

CITY           SKY/WX    TMP DP  RH WIND       PRES   REMARKS
GALLUP         FAIR      81  41  24 SE14      30.16F
GRANTS         FAIR      76  42  29 SE5       30.20F
SILVER CITY    CLOUDY    72  57  58 E8        30.15F

$$
NMZ407-409-411-412-202300-
SOUTHERN DESERTS

CITY           SKY/WX    TMP DP  RH WIND       PRES   REMARKS
DEMING         FAIR      75  63  66 E3        30.08F
LAS CRUCES     CLOUDY    71  65  81 NE5       30.11F
HOLLOMAN AFB   FAIR      73  70  90 N12       30.10F
ALAMOGORDO     FAIR      73  63  68 N10       30.10F
T OR C         CLOUDY    74  58  57 SE5       30.11F

$$
NMZ519>523-202300-
CENTRAL VALLEYS/CENTRAL HIGHLANDS

CITY           SKY/WX    TMP DP  RH WIND       PRES   REMARKS
ALBUQUERQUE    CLOUDY    72  54  53 S16       30.17F
DOUBLE EAGLE   SHOWER    72  54  53 S15       30.19F
MORIARTY ARPT  LGT RAIN  64  59  83 SW13      30.24F
CLINES CORNERS CLOUDY    66  49  54 W20       30.25F
BELEN          CLOUDY    74  52  47 S9        30.15F
SOCORRO        PTSUNNY   76  54  47 E8        30.13F

$$
NMZ524>526-539-540-202300-
SOUTHCENTRAL MOUNTAINS

CITY           SKY/WX    TMP DP  RH WIND       PRES   REMARKS
RUIDOSO        NOT AVBL

$$
NMZ527>531-202300-
NORTHEAST HIGHLANDS/NORTHEAST PLAINS

CITY           SKY/WX    TMP DP  RH WIND       PRES   REMARKS
LAS VEGAS      FAIR      74  51  44 S14       30.21F
RATON          FAIR      82  49  31 S10       30.14F
CLAYTON        FAIR      85  56  37 SW16      30.05F

$$
NMZ532>537-202300-
EASTCENTRAL PLAINS

CITY           SKY/WX    TMP DP  RH WIND       PRES   REMARKS
SANTA ROSA     FAIR      83  53  34 SW8       30.06S
TUCUMCARI      FAIR      90  56  31 W17G24    29.99F
CANNON AFB     TSTM      72  65  80 S24G38    30.09S
CLOVIS AIRPORT LGT RAIN  74  63  68 E10       30.08F

$$
NMZ028-029-538-202300-
SOUTHEAST PLAINS

CITY           SKY/WX    TMP DP  RH WIND       PRES   REMARKS
ROSWELL        PTSUNNY   84  61  45 W7        30.00S
ARTESIA        FAIR      77  68  73 SW7       30.00F
CARLSBAD       PTSUNNY   89  60  37 S13       29.96F
HOBBS          PTSUNNY   90  55  31 S14       30.00F


$$




USA.gov is the U.S. government's official web portal to all federal, state and local government web resources and services.